Location: Unspecified
(0.0000°N, 0.0000°E)
Time: 08:11:16
(UTC+00:00)

XW-2C - Pass Details

Date: 26 May 2021
Orbit: 506 x 525 km, 97.5° (Epoch: 17 June)

Event Time Altitude Azimuth Distance (km) Brightness Sun altitude
Rises 18:27:26 0° 203° (SSW) 2,627 ? -7.1°
Reaches altitude 10° 18:30:39 10° 234° (SW) 1,742 ? -7.8°
Maximum altitude 18:32:13 12° 259° (WSW) 1,602 ? -8.2°
Drops below altitude 10° 18:33:47 10° 283° (WNW) 1,744 ? -8.5°
Sets 18:37:00 0° 314° (NW) 2,631 ? -9.3°
